Regional Weather Roundup
Issued by NWS Kansas City/Pleasant Hill, MO

Home | Current Version | Previous Version | Graphics & Text | Print | Product List | Glossary Off
Versions: 1 2 3 4 5 6 7 8 9 10 11 12 13 14 15 16 17 18 19 20 21 22 23 24 25 26 27 28

000
ASUS43 KEAX 252010
RWREAX

WEATHER ROUNDUP FOR EASTERN KANSAS AND NORTHWEST MISSOURI
NATIONAL WEATHER SERVICE KANSAS CITY/PLEASANT HILL MO
300 PM CDT TUE JUL 25 2017

KSZ040-057-103>105-MOZ028-029-037-043-252100-
...KANSAS CITY METROPOLITAN AREA...

CITY           SKY/WX    TMP DP  RH WIND       PRES   REMARKS
K.C. INTL      MOSUNNY   94  72  48 SW9       30.05F HX 102
K.C. DOWNTOWN  SUNNY     94  74  52 SW6G16    30.03F HX 104
LEES SUMMIT    PTSUNNY   91  76  61 SE7       30.07F HX 103
OLATHE - IXD   SUNNY     93  72  50 S7        30.06F HX 101
OLATHE - OJC   PTSUNNY   90  75  61 VRB5      30.06F HX 100
LAWRENCE       SUNNY     94  72  48 S8        30.04F HX 102

$$

MOZ001>008-011>017-020>025-030>033-038>040-044>046-053-054-252100-
...NORTHERN AND CENTRAL MISSOURI...

CITY           SKY/WX    TMP DP  RH WIND       PRES   REMARKS
ST. JOSEPH     SUNNY     92  75  57 S9        30.04S HX 103
MOSBY          CLEAR     90  73  58 E8        30.06S HX  98
WARRENSBURG    SUNNY     91  70  49 CALM      30.06F HX  97
WHITEMAN AFB   MOSUNNY   92  77  62 E8        30.07F HX 105
CLINTON        SUNNY     93  72  49 W5        30.06F HX 100
SEDALIA        SUNNY     92  77  61 E7        30.09F HX 105
WARSAW         NOT AVBL
CHILLICOTHE      N/A     89  76  65 SE5       30.07F HX 100
KIRKSVILLE     SUNNY     89  69  51 E8        30.10F HX  93

$$

MOZ041-047>049-056>058-063>065-088>090-097-252100-
...EASTERN AND SOUTHERN MISSOURI...

CITY           SKY/WX    TMP DP  RH WIND       PRES   REMARKS
ST. LOUIS INTL MOSUNNY   93  71  48 E10       30.09F HX 100
SPIRIT OF STL  MOSUNNY   92  69  47 NE8       30.06F HX  97
COLUMBIA       SUNNY     90  70  51 E5        30.09F HX  95
JEFFERSON CITY SUNNY     90  70  51 SE12      30.06F HX  95
ROLLA          SUNNY     92  67  43 VRB5      30.10S HX  95
OSAGE BEACH    SUNNY     95  70  44 VRB3      30.07F HX 101
SPRINGFIELD    SUNNY     96  68  39 CALM      30.07F HX 101
BRANSON        MOSUNNY   93  68  43 SW6       30.10F HX  97
JOPLIN         MOSUNNY   98  72  42 S9        30.07S HX 107
WEST PLAINS    MOSUNNY   93  67  42 SW7       30.10S HX  96

$$

IAZ060-094-KSZ022-034>040-054-083-096-NEZ052-066-093-252100-
...KANSAS...SOUTHEAST NEBRASKA AND IOWA...

CITY           SKY/WX    TMP DP  RH WIND       PRES   REMARKS
TOPEKA         SUNNY     94  73  50 S10       30.03F HX 103
MANHATTAN      SUNNY     99  67  35 S16G23    30.00S HX 103
EMPORIA        SUNNY     94  69  44 S12       30.04F HX  99
CHANUTE        MOSUNNY   96  70  42 S14       30.05F HX 102
WICHITA        MOSUNNY   97  65  34 S12G24    30.00F HX  99
OMAHA          MOSUNNY   94  74  52 S13       29.99F HX 104
LINCOLN        SUNNY     96  68  39 S17       29.98F HX 101
FALLS CITY     SUNNY     96  70  42 SE14      30.01F HX 102
LAMONI         SUNNY     88  74  63 SE7       30.07F HX  96
DES MOINES     MOSUNNY   94  69  44 S14G24    30.03F HX  99

$$





USA.gov is the U.S. government's official web portal to all federal, state and local government web resources and services.